EW9013 Weather Reports


Display with metric or nautical units.
time (UTC)temp
F
wind
direction
speed
MPH
gust
MPH
rain 1hr
in
rain 24hr
in
rain mn
in
humidity
%
barometer
mb
20260507053007 0 0.0 0.0 0.00 0.02 0.00 1017.7
20260507051502 0 0.0 0.0 0.00 0.02 0.00 1017.7
20260507050057 0 0.0 0.0 0.00 0.02 0.00 1017.9
20260507044557 76 107 1.0 3.0 0.00 0.03 0.00 81 1018.1
20260507043052 76 101 0.0 3.0 0.00 0.03 0.00 81 1018.3
20260507041550 76 77 1.0 4.0 0.00 0.03 0.00 81 1018.6
20260507040045 76 93 1.0 3.0 0.00 0.03 0.00 81 1018.8
20260507034545 77 92 1.0 5.0 0.00 0.03 0.03 81 1019.0
20260507033045 77 105 1.0 4.0 0.00 0.03 0.03 81 1019.1
20260507031545 77 77 1.0 3.0 0.00 0.03 0.03 81 1019.3
20260507030042 77 129 1.0 3.0 0.00 0.03 0.03 81 1019.3
20260507024543 77 101 0.0 3.0 0.00 0.04 0.03 81 1019.3
20260507023044 77 81 1.0 4.0 0.00 0.04 0.03 81 1019.3
20260507021544 77 88 1.0 4.0 0.00 0.04 0.03 81 1019.2
20260507020053 77 113 1.0 4.0 0.00 0.04 0.03 81 1019.1
20260507014546 77 115 1.0 5.0 0.00 0.04 0.03 80 1019.0
20260507013042 77 77 1.0 5.0 0.00 0.04 0.03 80 1018.9
20260507011541 77 87 1.0 4.0 0.00 0.04 0.03 80 1018.7
20260507010055 78 67 1.0 5.0 0.00 0.04 0.03 80 1018.5
20260507004538 77 128 1.0 4.0 0.00 0.04 0.03 80 1018.7
20260507003039 78 76 2.0 4.0 0.00 0.04 0.03 80 1018.5
20260507001536 78 72 1.0 5.0 0.00 0.04 0.03 79 1018.3
20260506234534 78 120 1.0 6.0 0.00 0.04 0.03 78 1018.0
20260506233034 78 103 1.0 4.0 0.00 0.04 0.03 78 1017.8
20260506231533 79 115 1.0 4.0 0.00 0.04 0.03 77 1017.7
20260506230036 79 136 1.0 4.0 0.00 0.04 0.03 75 1017.5
20260506224537 80 127 1.0 5.0 0.00 0.04 0.03 74 1017.3
20260506223031 80 115 3.0 8.0 0.00 0.04 0.03 74 1017.0
20260506221531 81 76 2.0 7.0 0.00 0.04 0.03 73 1016.8
20260506220036 81 90 4.0 10.0 0.00 0.04 0.03 71 1016.8
20260506214531 82 116 4.0 9.0 0.00 0.04 0.03 69 1016.9
20260506213029 82 61 5.0 11.0 0.00 0.04 0.03 69 1016.8
20260506211530 83 145 5.0 10.0 0.00 0.04 0.03 67 1016.6
20260506210031 83 86 4.0 12.0 0.00 0.04 0.03 66 1016.6
20260506204532 84 119 4.0 11.0 0.00 0.04 0.03 63 1016.6
20260506203025 85 125 5.0 10.0 0.00 0.04 0.03 59 1016.6
20260506201535 85 139 4.0 13.0 0.00 0.04 0.03 61 1016.6
20260506200023 86 98 4.0 11.0 0.00 0.04 0.03 58 1016.7
20260506194520 86 42 6.0 11.0 0.00 0.04 0.03 57 1016.8
20260506193024 87 79 6.0 12.0 0.00 0.04 0.03 56 1016.9
20260506191517 87 82 3.0 14.0 0.00 0.04 0.03 57 1016.8
20260506190023 86 51 4.0 13.0 0.00 0.04 0.03 60 1017.0
20260506184519 86 59 4.0 13.0 0.00 0.04 0.03 62 1017.2
20260506183010 86 79 4.0 10.0 0.00 0.04 0.03 61 1017.2
20260506181507 84 62 7.0 11.0 0.00 0.04 0.03 63 1017.4
20260506180010 84 68 3.0 13.0 0.00 0.04 0.03 72 1017.5
20260506174514 84 68 4.0 12.0 0.00 0.04 0.03 70 1017.7
20260506173005 83 73 3.0 13.0 0.00 0.04 0.03 71 1017.8
20260506171504 86 95 3.0 10.0 0.00 0.04 0.03 67 1017.9
20260506170003 86 84 3.0 11.0 0.00 0.04 0.03 67 1018.2
20260506164600 85 92 6.0 13.0 0.00 0.04 0.03 68 1018.4
20260506163108 84 129 3.0 13.0 0.00 0.04 0.03 73 1018.6
20260506161557 84 111 5.0 12.0 0.00 0.04 0.03 72 1018.8
20260506160108 84 75 3.0 12.0 0.00 0.04 0.03 72 1018.8
20260506154554 85 114 3.0 11.0 0.00 0.04 0.03 71 1018.8
20260506153053 83 178 2.0 7.0 0.02 0.04 0.03 73 1019.0
20260506151556 83 74 2.0 9.0 0.02 0.04 0.03 73 1019.2
20260506150055 83 131 3.0 12.0 0.02 0.04 0.03 75 1019.2
20260506144600 81 97 4.0 10.0 0.02 0.04 0.03 79 1019.4
20260506143051 82 141 3.0 11.0 0.00 0.02 0.01 75 1019.4
20260506141550 83 96 6.0 13.0 0.00 0.02 0.01 72 1019.5
20260506140048 84 79 4.0 15.0 0.00 0.02 0.01 71 1019.4
20260506134547 84 104 5.0 12.0 0.00 0.03 0.01 69 1019.4
20260506133046 84 71 7.0 15.0 0.00 0.03 0.01 70 1019.4
20260506131552 85 73 4.0 11.0 0.00 0.03 0.01 70 1019.4
20260506130043 84 27 6.0 15.0 0.00 0.03 0.01 71 1019.2
20260506124539 84 78 5.0 13.0 0.00 0.03 0.01 71 1019.2
20260506123036 84 57 6.0 11.0 0.00 0.03 0.01 72 1019.4
20260506121532 83 96 6.0 12.0 0.00 0.03 0.01 74 1019.1
20260506120032 83 125 2.0 11.0 0.00 0.03 0.01 74 1019.0
20260506114536 82 57 3.0 10.0 0.00 0.03 0.01 77 1018.9
20260506113026 82 101 4.0 7.0 0.00 0.03 0.01 77 1018.7
20260506111521 80 68 3.0 7.0 0.00 0.03 0.01 81 1018.7
20260506110024 80 58 4.0 8.0 0.00 0.03 0.01 81 1018.6
20260506104516 79 118 2.0 4.0 0.00 0.03 0.01 83 1018.5
20260506103013 78 118 2.0 4.0 0.00 0.03 0.01 85 1018.3
20260506101508 0 0.0 0.0 0.00 0.03 0.01 1018.3
20260506100007 0 0.0 0.0 0.00 0.03 0.01 1018.2
20260506094502 0 0.0 0.0 0.00 0.03 0.01 1018.1
20260506093059 0 0.0 0.0 0.00 0.03 0.01 1017.8
20260506091555 0 0.0 0.0 0.00 0.03 0.01 1017.9
20260506090048 0 0.0 0.0 0.00 0.03 0.01 1017.7
20260506084544 0 0.0 0.0 0.00 0.03 0.01 1017.6
20260506083039 0 0.0 0.0 0.00 0.03 0.01 1017.4
20260506081539 0 0.0 0.0 0.00 0.03 0.01 1017.5
20260506073028 0 0.0 0.0 0.00 0.03 0.01 1017.5
20260506071524 0 0.0 0.0 0.00 0.03 0.01 1017.6
20260506061505 0 0.0 0.0 0.00 0.03 0.01 1017.6